Change the Weather History Date:

Tuesday, March 26, 2013

  Actual Average Record
Temperature  
Mean Temperature 37 °F 32 °F  
Max Temperature 47 °F 42 °F 60 °F (1978)
Min Temperature 26 °F 21 °F -4 °F (1955)
Degree Days  
Heating Degree Days 28 33  
Month to date heating degree days 935 951  
Since 1 July heating degree days 6964 7626  
Cooling Degree Days 0 0  
Month to date cooling degree days 0 0  
Year to date cooling degree days 0 0  
Moisture  
Dew Point 25 °F    
Average Humidity 62    
Maximum Humidity 81    
Minimum Humidity 42    
Precipitation  
Precipitation 0.00 in 0.09 in 0.59 in (1936)
Month to date precipitation 1.30 1.77  
Year to date precipitation 5.64 5.24  
Sea Level Pressure  
Sea Level Pressure 29.96 in    
Wind  
Wind Speed 3 mph (West)    
Max Wind Speed 13 mph    
Max Gust Speed 16 mph    
Visibility 10 miles    
Events      
T = Trace of Precipitation, MM = Missing Value Source: NWS Daily Summary

Daily Weather History Graph

Daily Weather History Graph

Search for Another Location

Airport or City:

Trip Planner

Search our weather history database for the weather conditions in past years. The results will help you decide how hot, cold, wet, or windy it might be!

Date:

Astronomy

Mar. 26, 2013 Rise Set
Actual Time 7:35 AM MDT 8:04 PM MDT
Civil Twilight 7:06 AM MDT 8:34 PM MDT
Nautical Twilight 6:31 AM MDT 9:09 PM MDT
Astronomical Twilight 5:55 AM MDT 9:45 PM MDT
Moon 7:47 PM MDT (3/26) 6:55 AM MDT (3/26)
Length of Visible Light 13h 28m
Length of Day
12h 29m
Waxing Gibbous, 99% of the Moon is Illuminated
Mar 26
Waxing Gibbous
Mar 27
Full
Apr 2
Last Quarter
Apr 10
New
Apr 18
First Quarter

Hourly Weather History & Observations

Time (MDT) Temp. Windchill Dew Point Humidity Pressure Visibility Wind Dir Wind Speed Gust Speed Precip Events Conditions
12:51 AM 30.9 °F - 23.0 °F 72% 30.01 in 10.0 mi Calm Calm - N/A   Overcast
1:51 AM 30.9 °F 27.5 °F 23.0 °F 72% 30.00 in 10.0 mi North 3.5 mph - N/A   Overcast
2:51 AM 30.0 °F - 23.0 °F 75% 29.99 in 10.0 mi Calm Calm - N/A   Overcast
3:51 AM 32.0 °F 28.7 °F 23.0 °F 69% 29.96 in 10.0 mi North 3.5 mph - N/A   Overcast
4:51 AM 30.0 °F 26.5 °F 23.0 °F 75% 29.95 in 10.0 mi North 3.5 mph - N/A   Overcast
5:51 AM 28.9 °F - 23.0 °F 78% 29.94 in 10.0 mi Calm Calm - N/A   Overcast
6:51 AM 28.9 °F - 21.9 °F 75% 29.94 in 10.0 mi Calm Calm - N/A   Mostly Cloudy
7:51 AM 27.0 °F - 21.9 °F 81% 29.97 in 10.0 mi Calm Calm - N/A   Partly Cloudy
8:51 AM 28.9 °F - 23.0 °F 78% 29.98 in 10.0 mi Calm Calm - N/A   Clear
9:51 AM 30.0 °F 26.5 °F 23.0 °F 75% 29.98 in 10.0 mi SSE 3.5 mph - N/A   Clear
10:51 AM 37.9 °F - 23.0 °F 55% 29.96 in 10.0 mi Calm Calm - N/A   Overcast
11:51 AM 37.0 °F 33.3 °F 25.0 °F 62% 29.96 in 10.0 mi South 4.6 mph - N/A   Overcast
12:51 PM 39.9 °F - 25.0 °F 55% 29.96 in 10.0 mi Calm Calm - N/A   Overcast
1:51 PM 44.1 °F 41.5 °F 25.0 °F 47% 29.94 in 10.0 mi SW 4.6 mph - N/A   Mostly Cloudy
2:51 PM 45.0 °F 42.6 °F 25.0 °F 46% 29.93 in 10.0 mi WSW 4.6 mph - N/A   Clear
3:51 PM 46.0 °F 41.9 °F 25.0 °F 44% 29.92 in 10.0 mi West 8.1 mph - N/A   Clear
4:51 PM 46.9 °F - 26.1 °F 44% 29.91 in 10.0 mi WSW 8.1 mph - N/A   Clear
5:51 PM 46.0 °F 41.4 °F 27.0 °F 47% 29.93 in 10.0 mi West 9.2 mph - N/A   Overcast
6:51 PM 45.0 °F 40.1 °F 28.0 °F 52% 29.94 in 10.0 mi West 9.2 mph - N/A   Overcast
7:51 PM 42.1 °F 39.2 °F 28.9 °F 60% 29.96 in 10.0 mi West 4.6 mph - N/A   Overcast
8:51 PM 39.0 °F - 28.9 °F 67% 29.97 in 10.0 mi Calm Calm - N/A   Mostly Cloudy
9:51 PM 35.1 °F 32.2 °F 27.0 °F 72% 29.99 in 10.0 mi NNE 3.5 mph - N/A   Partly Cloudy
10:51 PM 32.0 °F - 26.1 °F 79% 29.98 in 10.0 mi Calm Calm - N/A   Partly Cloudy
11:51 PM 32.0 °F - 26.1 °F 79% 29.99 in 10.0 mi Calm Calm - N/A   Partly Cloudy